FW7501 Weather Reports


Display with metric or nautical units.
time (UTC)temp
F
wind
direction
speed
MPH
gust
MPH
rain 1hr
in
rain 24hr
in
rain mn
in
humidity
%
barometer
mb
20260510141008 50 128 2.0 3.0 0.00 0.01 0.00 87 1032.3
20260510140510 50 128 1.0 3.0 0.00 0.01 0.00 87 1032.4
20260510140013 49 128 0.0 0.0 0.00 0.01 0.00 86 1032.4
20260510135510 49 128 0.0 0.0 0.00 0.01 0.01 86 1032.5
20260510135010 50 128 0.0 0.0 0.00 0.01 0.01 86 1032.5
20260510134511 50 128 0.0 2.0 0.00 0.01 0.01 86 1032.6
20260510133507 49 128 0.0 2.0 0.00 0.01 0.01 85 1032.5
20260510133008 49 128 0.0 2.0 0.00 0.01 0.01 85 1032.6
20260510132508 49 128 0.0 2.0 0.00 0.01 0.01 85 1032.5
20260510132008 49 128 0.0 2.0 0.00 0.01 0.01 85 1032.6
20260510131529 50 128 1.0 3.0 0.00 0.01 0.01 85 1032.6
20260510131008 50 128 1.0 3.0 0.00 0.01 0.01 85 1032.7
20260510130016 49 133 0.0 1.0 0.00 0.01 0.01 84 1032.6
20260510125009 48 133 0.0 0.0 0.00 0.01 0.01 84 1032.6
20260510124517 49 133 0.0 0.0 0.00 0.01 0.01 84 1032.5
20260510124008 49 133 0.0 0.0 0.00 0.01 0.01 83 1032.6
20260510123511 48 133 0.0 0.0 0.00 0.01 0.01 84 1032.6
20260510123016 48 133 0.0 0.0 0.00 0.01 0.01 83 1032.7
20260510122513 48 133 0.0 0.0 0.00 0.01 0.01 83 1032.7
20260510122006 48 133 0.0 0.0 0.00 0.01 0.01 83 1032.7
20260510121510 48 133 0.0 0.0 0.00 0.01 0.01 83 1032.7
20260510121012 48 133 0.0 0.0 0.00 0.01 0.01 83 1032.7
20260510120509 48 133 0.0 0.0 0.00 0.01 0.01 83 1032.7
20260510120010 48 133 0.0 0.0 0.00 0.01 0.01 82 1032.7
20260510115508 48 133 0.0 2.0 0.00 0.01 0.01 82 1032.6
20260510115011 49 133 0.0 2.0 0.00 0.01 0.01 82 1032.6
20260510114518 49 133 0.0 3.0 0.00 0.01 0.01 81 1032.6
20260510114014 49 133 1.0 4.0 0.00 0.01 0.01 82 1032.5
20260510113506 49 133 2.0 4.0 0.00 0.01 0.01 82 1032.5
20260510113023 48 130 2.0 4.0 0.00 0.01 0.01 81 1032.6
20260510112511 48 130 1.0 3.0 0.00 0.01 0.01 81 1032.6
20260510112007 48 130 0.0 1.0 0.00 0.01 0.01 80 1032.6
20260510111524 49 130 0.0 1.0 0.00 0.01 0.01 80 1032.6
20260510111007 49 130 0.0 1.0 0.00 0.01 0.01 80 1032.6
20260510110508 49 130 0.0 2.0 0.00 0.01 0.01 80 1032.5
20260510110013 49 130 0.0 2.0 0.00 0.01 0.01 79 1032.4
20260510105504 49 130 1.0 2.0 0.00 0.01 0.01 79 1032.4
20260510105009 49 130 1.0 2.0 0.00 0.01 0.01 79 1032.4
20260510104010 50 130 1.0 3.0 0.00 0.01 0.01 78 1032.4
20260510103510 50 130 1.0 3.0 0.00 0.01 0.01 78 1032.4
20260510102509 50 130 2.0 4.0 0.00 0.01 0.01 78 1032.4
20260510102015 50 130 2.0 4.0 0.00 0.01 0.01 78 1032.3
20260510101514 50 131 2.0 4.0 0.00 0.01 0.01 78 1032.3
20260510101014 50 131 1.0 4.0 0.00 0.01 0.01 78 1032.3
20260510100024 50 143 2.0 4.0 0.00 0.01 0.01 78 1032.3
20260510095513 50 135 3.0 4.0 0.00 0.01 0.01 78 1032.2
20260510095013 50 133 2.0 4.0 0.00 0.01 0.01 78 1032.1
20260510094522 50 141 2.0 4.0 0.00 0.01 0.01 78 1032.2
20260510094011 50 131 2.0 4.0 0.00 0.01 0.01 78 1032.2
20260510093025 50 133 2.0 4.0 0.00 0.01 0.01 78 1032.1
20260510092010 50 129 3.0 5.0 0.00 0.01 0.01 77 1032.1
20260510091531 50 135 3.0 6.0 0.00 0.01 0.01 78 1032.0
20260510091015 50 138 3.0 6.0 0.00 0.01 0.01 78 1032.0
20260510090512 50 135 2.0 5.0 0.00 0.01 0.01 78 1032.0
20260510090018 50 137 3.0 4.0 0.00 0.01 0.01 78 1031.9
20260510085509 50 150 2.0 4.0 0.00 0.01 0.01 77 1031.8
20260510085008 50 125 2.0 5.0 0.00 0.01 0.01 77 1031.8
20260510084011 51 152 3.0 5.0 0.00 0.01 0.01 77 1031.7
20260510083516 51 170 3.0 5.0 0.00 0.01 0.01 77 1031.7
20260510083015 51 143 3.0 5.0 0.00 0.01 0.01 77 1031.6
20260510082504 51 140 3.0 6.0 0.00 0.01 0.01 77 1031.6
20260510082009 51 145 3.0 6.0 0.00 0.01 0.01 77 1031.5
20260510081511 51 159 3.0 6.0 0.00 0.01 0.01 77 1031.5
20260510081004 51 159 4.0 6.0 0.00 0.01 0.01 77 1031.5
20260510080505 51 162 4.0 6.0 0.00 0.01 0.01 77 1031.4
20260510080004 51 152 2.0 6.0 0.00 0.01 0.01 76 1031.4
20260510075503 51 147 3.0 6.0 0.00 0.01 0.01 76 1031.4
20260510075004 51 142 3.0 6.0 0.00 0.01 0.01 76 1031.3
20260510074507 51 147 3.0 6.0 0.00 0.01 0.01 76 1031.3
20260510074006 51 153 3.0 5.0 0.00 0.01 0.01 77 1031.2
20260510073504 52 157 3.0 5.0 0.00 0.01 0.01 77 1031.2
20260510072505 52 147 2.0 4.0 0.00 0.01 0.01 76 1031.1
20260510072010 53 162 0.0 3.0 0.00 0.01 0.01 76 1031.0
20260510071516 53 162 1.0 3.0 0.00 0.01 0.01 75 1031.1
20260510071011 53 162 1.0 3.0 0.00 0.01 0.01 75 1031.1
20260510070503 53 162 1.0 5.0 0.00 0.01 0.01 74 1031.1
20260510070018 54 156 3.0 5.0 0.00 0.01 0.01 74 1031.0
20260510065507 54 158 2.0 6.0 0.00 0.01 0.01 74 1030.9
20260510065004 54 162 4.0 7.0 0.00 0.01 0.01 74 1030.9
20260510064515 54 165 3.0 8.0 0.00 0.01 0.01 74 1030.8
20260510064004 54 204 5.0 8.0 0.00 0.01 0.01 74 1030.8
20260510063504 54 158 4.0 11.0 0.00 0.01 0.01 74 1030.9
20260510063011 54 180 4.0 11.0 0.00 0.01 0.01 74 1030.8
20260510062504 54 185 7.0 11.0 0.00 0.01 0.01 74 1030.8
20260510062007 54 189 5.0 10.0 0.00 0.01 0.01 74 1030.8
20260510061514 54 180 6.0 11.0 0.00 0.01 0.01 74 1030.7
20260510061011 54 185 5.0 11.0 0.00 0.01 0.01 74 1030.8
20260510060507 54 175 6.0 10.0 0.00 0.01 0.01 74 1030.8
20260510060012 54 156 7.0 10.0 0.00 0.01 0.01 74 1030.7
20260510055508 55 190 6.0 11.0 0.00 0.01 0.01 75 1030.7
20260510055007 55 190 6.0 11.0 0.00 0.01 0.01 74 1030.7
20260510054013 54 136 4.0 11.0 0.00 0.01 0.01 74 1030.6
20260510053016 55 202 6.0 10.0 0.00 0.01 0.01 75 1030.6
20260510052504 55 158 5.0 11.0 0.00 0.01 0.01 74 1030.5
20260510052007 55 148 5.0 11.0 0.00 0.01 0.01 75 1030.5
20260510051505 55 201 5.0 10.0 0.00 0.01 0.01 75 1030.5
20260510051005 55 189 6.0 11.0 0.00 0.01 0.01 75 1030.3
20260510050502 55 191 4.0 11.0 0.00 0.01 0.01 74 1030.3
20260510050004 55 133 6.0 10.0 0.00 0.01 0.01 74 1030.4
20260510045503 55 130 6.0 10.0 0.00 0.01 0.01 74 1030.5
20260510045003 55 129 5.0 9.0 0.00 0.01 0.01 73 1030.5
20260510044503 55 172 6.0 11.0 0.00 0.01 0.01 73 1030.5
20260510044002 55 152 7.0 11.0 0.00 0.01 0.01 75 1030.5
20260510043506 55 192 7.0 12.0 0.00 0.01 0.01 74 1030.4
20260510043002 54 166 5.0 12.0 0.00 0.01 0.01 74 1030.5
20260510042506 55 191 8.0 12.0 0.00 0.01 0.01 75 1030.4
20260510042005 55 170 4.0 9.0 0.00 0.01 0.01 76 1030.3
20260510041511 55 196 5.0 10.0 0.00 0.01 0.01 75 1030.5
20260510041005 55 180 4.0 10.0 0.00 0.01 0.01 75 1030.6
20260510040012 55 125 4.0 10.0 0.00 0.01 0.01 74 1030.6
20260510035505 55 158 5.0 12.0 0.00 0.01 0.01 75 1030.6
20260510034504 55 191 6.0 10.0 0.00 0.01 0.01 75 1030.6
20260510034004 55 134 4.0 13.0 0.00 0.01 0.01 74 1030.6
20260510033503 55 185 5.0 13.0 0.00 0.01 0.01 74 1030.7
20260510033004 55 208 8.0 13.0 0.00 0.01 0.01 75 1030.8
20260510032501 55 191 5.0 12.0 0.00 0.01 0.01 74 1030.7
20260510032006 55 172 6.0 11.0 0.00 0.01 0.01 74 1030.7
20260510031512 55 185 8.0 10.0 0.00 0.01 0.01 74 1030.8
20260510031003 55 195 5.0 10.0 0.00 0.01 0.01 75 1030.8
20260510030504 55 190 7.0 10.0 0.00 0.01 0.01 74 1030.9
20260510030004 55 169 7.0 10.0 0.00 0.01 0.01 75 1030.9
20260510025508 55 180 6.0 11.0 0.00 0.01 0.01 74 1030.9
20260510025010 55 180 8.0 13.0 0.00 0.01 0.01 74 1030.9
20260510024006 54 128 7.0 13.0 0.00 0.01 0.01 74 1031.1
20260510023504 54 133 6.0 12.0 0.00 0.01 0.01 75 1031.2
20260510023003 54 185 6.0 13.0 0.00 0.01 0.01 75 1031.2
20260510022502 54 196 8.0 13.0 0.00 0.01 0.01 75 1031.3
20260510022003 54 172 6.0 12.0 0.00 0.01 0.01 76 1031.4
20260510021506 54 189 6.0 12.0 0.00 0.01 0.01 75 1031.4
20260510021002 54 131 6.0 10.0 0.00 0.01 0.01 76 1031.6
20260510020502 54 170 7.0 10.0 0.00 0.01 0.01 76 1031.6
20260510020008 54 150 5.0 9.0 0.00 0.01 0.01 75 1031.6
20260510015504 54 155 5.0 9.0 0.00 0.01 0.01 75 1031.6
20260510015004 54 139 4.0 10.0 0.00 0.01 0.01 77 1031.7
20260510014513 54 189 6.0 12.0 0.00 0.01 0.01 77 1031.8
20260510013507 54 150 7.0 11.0 0.00 0.01 0.01 76 1032.0
20260510013010 54 175 5.0 10.0 0.00 0.01 0.01 77 1031.9
20260510012504 53 166 4.0 10.0 0.00 0.01 0.01 78 1032.0
20260510012006 53 118 6.0 10.0 0.00 0.01 0.01 78 1032.0
20260510011505 53 149 5.0 12.0 0.00 0.01 0.01 80 1032.0
20260510011010 53 152 6.0 12.0 0.00 0.01 0.01 80 1032.1
20260510010004 53 175 5.0 14.0 0.00 0.01 0.01 82 1032.1
20260510005005 53 142 5.0 10.0 0.00 0.01 0.01 84 1032.1
20260510004512 53 170 5.0 10.0 0.00 0.01 0.01 86 1032.1
20260510004004 53 130 4.0 10.0 0.00 0.01 0.01 86 1032.2
20260510003505 52 145 5.0 10.0 0.00 0.01 0.01 86 1032.1
20260510003016 52 171 5.0 9.0 0.00 0.01 0.01 88 1032.1
20260510002506 52 135 5.0 9.0 0.00 0.01 0.01 88 1032.0
20260510001516 52 147 5.0 10.0 0.00 0.01 0.01 89 1032.1
20260510001009 52 185 5.0 10.0 0.00 0.01 0.01 90 1032.1
20260510000511 52 165 5.0 9.0 0.00 0.01 0.01 90 1032.2
20260510000019 52 159 4.0 8.0 0.00 0.01 0.01 90 1032.0
20260509235503 52 144 3.0 6.0 0.00 0.01 0.01 90 1032.1
20260509235003 51 127 3.0 8.0 0.00 0.01 0.01 90 1032.1
20260509234508 51 133 4.0 9.0 0.00 0.01 0.01 90 1032.1
20260509234004 51 199 4.0 9.0 0.00 0.01 0.01 90 1032.1
20260509233504 51 185 3.0 6.0 0.00 0.01 0.01 90 1032.0
20260509233018 51 142 4.0 6.0 0.00 0.01 0.01 90 1032.0
20260509232508 51 160 4.0 8.0 0.00 0.01 0.01 90 1031.9
20260509232007 51 180 4.0 8.0 0.00 0.01 0.01 90 1031.8
20260509231509 51 158 4.0 6.0 0.00 0.01 0.01 90 1031.8
20260509231006 51 156 3.0 7.0 0.00 0.01 0.01 90 1031.9
20260509230507 51 144 4.0 7.0 0.00 0.01 0.01 90 1031.7
20260509230022 51 137 4.0 7.0 0.00 0.01 0.01 90 1031.7
20260509225509 51 139 3.0 6.0 0.00 0.01 0.01 90 1031.7
20260509225007 51 160 3.0 5.0 0.00 0.01 0.01 90 1031.8
20260509224522 51 160 3.0 7.0 0.00 0.01 0.01 90 1031.8
20260509224004 51 185 4.0 7.0 0.00 0.01 0.01 90 1031.6
20260509223503 50 180 3.0 6.0 0.00 0.01 0.01 90 1031.6
20260509223011 50 143 3.0 8.0 0.00 0.01 0.01 90 1031.6
20260509222505 50 180 4.0 8.0 0.00 0.01 0.01 90 1031.6
20260509222008 50 141 5.0 8.0 0.00 0.01 0.01 90 1031.5
20260509221514 50 159 4.0 6.0 0.00 0.01 0.01 90 1031.5
20260509221006 50 158 4.0 7.0 0.00 0.01 0.01 90 1031.4
20260509220507 50 137 4.0 9.0 0.00 0.01 0.01 90 1031.4
20260509220016 50 165 4.0 9.0 0.00 0.01 0.01 90 1031.2
20260509215008 50 170 5.0 10.0 0.00 0.01 0.01 90 1031.0
20260509214516 50 154 5.0 10.0 0.00 0.01 0.01 90 1030.9
20260509214010 50 131 6.0 11.0 0.00 0.01 0.01 90 1031.0
20260509213507 50 166 6.0 11.0 0.00 0.01 0.01 90 1031.0
20260509213013 50 153 6.0 11.0 0.00 0.01 0.01 90 1030.9
20260509212510 50 163 5.0 11.0 0.00 0.01 0.01 90 1030.6
20260509212007 50 153 8.0 11.0 0.00 0.01 0.01 90 1030.5
20260509211513 50 149 7.0 12.0 0.00 0.01 0.01 90 1030.5
20260509211005 51 162 6.0 12.0 0.00 0.01 0.01 90 1030.3
20260509210511 51 175 6.0 12.0 0.00 0.01 0.01 90 1030.3
20260509210016 51 140 6.0 11.0 0.00 0.01 0.01 90 1030.3
20260509205510 51 172 8.0 12.0 0.00 0.01 0.01 90 1030.4
20260509205007 51 135 6.0 12.0 0.00 0.01 0.01 90 1030.5
20260509204520 51 185 4.0 9.0 0.00 0.01 0.01 90 1030.3
20260509204009 51 185 6.0 9.0 0.00 0.01 0.01 90 1030.4
20260509203514 51 192 7.0 9.0 0.00 0.01 0.01 90 1030.4
20260509203035 51 195 4.0 8.0 0.00 0.01 0.01 90 1030.3
20260509202503 51 193 5.0 9.0 0.00 0.01 0.01 90 1030.3
20260509202004 51 175 5.0 9.0 0.00 0.01 0.01 90 1030.2
20260509201502 51 203 5.0 9.0 0.00 0.01 0.01 90 1030.3
20260509201004 51 189 5.0 9.0 0.00 0.01 0.01 90 1030.1
20260509200508 51 185 5.0 10.0 0.00 0.01 0.01 90 1030.1
20260509200012 51 185 5.0 10.0 0.00 0.01 0.01 90 1030.0
20260509195507 51 180 4.0 8.0 0.00 0.01 0.01 90 1030.0
20260509195004 51 185 4.0 8.0 0.00 0.01 0.01 90 1030.0
20260509194504 51 210 3.0 10.0 0.00 0.01 0.01 90 1029.9
20260509194002 51 185 5.0 10.0 0.00 0.01 0.01 90 1029.8
20260509193502 51 208 6.0 11.0 0.00 0.01 0.01 90 1029.8
20260509193005 51 185 5.0 11.0 0.00 0.01 0.01 90 1029.6
20260509192504 51 172 7.0 10.0 0.00 0.01 0.01 90 1029.5
20260509192006 51 213 6.0 11.0 0.00 0.01 0.01 90 1029.5
20260509191510 51 172 6.0 11.0 0.00 0.01 0.01 90 1029.4
20260509191007 51 175 8.0 11.0 0.00 0.01 0.01 90 1029.4
20260509190504 51 211 5.0 11.0 0.00 0.01 0.01 90 1029.4
20260509190009 51 202 6.0 12.0 0.00 0.01 0.01 90 1029.3
20260509185504 51 199 7.0 12.0 0.00 0.01 0.01 90 1029.2
20260509185005 52 191 8.0 12.0 0.00 0.01 0.01 90 1029.2
20260509184009 52 208 6.0 10.0 0.00 0.00 0.00 90 1029.2
20260509183507 52 185 7.0 10.0 0.00 0.00 0.00 90 1029.1
20260509183006 52 191 4.0 8.0 0.00 0.01 0.00 90 1029.0
20260509182503 52 180 3.0 6.0 0.00 0.01 0.00 90 1029.0
20260509182003 52 175 4.0 8.0 0.00 0.01 0.00 90 1029.0
20260509181507 52 191 4.0 8.0 0.00 0.01 0.00 90 1029.0
20260509181006 52 185 6.0 8.0 0.00 0.01 0.00 90 1028.9
20260509180508 52 175 4.0 8.0 0.00 0.01 0.00 90 1028.9
20260509180009 52 164 4.0 9.0 0.00 0.01 0.00 90 1028.9
20260509175506 52 170 5.0 9.0 0.00 0.01 0.00 90 1028.9
20260509175001 52 156 4.0 9.0 0.00 0.01 0.00 90 1028.9
20260509174535 52 172 6.0 11.0 0.00 0.01 0.00 90 1028.8
20260509174007 52 169 6.0 12.0 0.00 0.01 0.00 90 1028.9
20260509173506 52 152 7.0 12.0 0.00 0.01 0.00 90 1028.9
20260509173012 52 153 9.0 12.0 0.00 0.01 0.00 90 1029.0
20260509172505 52 168 6.0 10.0 0.00 0.01 0.00 90 1028.9
20260509172016 52 191 5.0 11.0 0.00 0.01 0.00 90 1029.0
20260509171004 52 152 6.0 10.0 0.00 0.01 0.00 90 1029.1
20260509170504 52 155 5.0 12.0 0.00 0.01 0.00 90 1029.1
20260509170009 52 160 7.0 12.0 0.00 0.01 0.00 90 1029.1
20260509165505 52 190 7.0 12.0 0.00 0.01 0.00 90 1029.1
20260509165006 52 162 5.0 11.0 0.00 0.01 0.00 90 1029.1
20260509164507 52 172 7.0 11.0 0.00 0.01 0.00 90 1029.2
20260509164006 52 193 7.0 11.0 0.00 0.01 0.00 90 1029.1
20260509163506 52 170 7.0 11.0 0.00 0.01 0.00 90 1029.2
20260509163016 52 194 6.0 11.0 0.00 0.01 0.00 90 1029.2
20260509162511 52 189 7.0 10.0 0.00 0.01 0.00 90 1029.2
20260509161527 52 204 5.0 8.0 0.00 0.01 0.00 90 1029.1
20260509161009 52 189 3.0 8.0 0.00 0.01 0.00 90 1029.2
20260509160504 52 158 4.0 9.0 0.00 0.01 0.00 90 1029.2
20260509160020 52 185 5.0 9.0 0.00 0.00 0.00 90 1029.2
20260509155507 52 169 4.0 9.0 0.00 0.00 0.00 90 1029.2
20260509155009 52 171 4.0 8.0 0.00 0.00 0.00 90 1029.2
20260509154506 52 162 4.0 8.0 0.00 0.00 0.00 90 1029.2
20260509154004 52 189 5.0 9.0 0.00 0.00 0.00 90 1029.2
20260509153505 52 172 5.0 9.0 0.00 0.00 0.00 90 1029.2
20260509153029 52 171 5.0 8.0 0.00 0.00 0.00 90 1029.2
20260509152506 52 155 4.0 8.0 0.00 0.00 0.00 90 1029.2
20260509152008 52 185 3.0 8.0 0.00 0.00 0.00 90 1029.2
20260509151517 52 169 5.0 9.0 0.00 0.00 0.00 90 1029.3
20260509151012 52 154 4.0 9.0 0.00 0.00 0.00 89 1029.3
20260509150511 52 137 4.0 10.0 0.00 0.00 0.00 89 1029.2
20260509145510 52 175 4.0 7.0 0.00 0.00 0.00 89 1029.3
20260509144510 52 153 3.0 10.0 0.00 0.00 0.00 89 1029.3
20260509144012 52 138 5.0 10.0 0.00 0.00 0.00 89 1029.3
20260509143509 52 170 4.0 11.0 0.00 0.00 0.00 89 1029.3
20260509143011 52 160 6.0 11.0 0.00 0.00 0.00 89 1029.3
20260509142505 52 163 6.0 9.0 0.00 0.00 0.00 89 1029.3
20260509142005 52 142 5.0 9.0 0.00 0.00 0.00 89 1029.3